Preview of NWS' New Version of Forecast
This preview is not operational and should not be used for support decisions.

Regional Weather Roundup (RWR)

Issued by National Weather Service (NWS)

                            
000
ASUS43 KLSX 240307
RWRMO 

WEATHER SUMMARY FOR MISSOURI
NATIONAL WEATHER SERVICE SPRINGFIELD MO
1000 PM CDT THU MAY 23 2019

NOTE: "FAIR" INDICATES FEW OR NO CLOUDS BELOW 12,000 FEET WITH NO
       SIGNIFICANT WEATHER AND/OR OBSTRUCTIONS TO VISIBILITY.
       CURRENT SKY AND/OR WEATHER CONDITIONS ARE NOT AVAILABLE FOR
       CHILLICOTHE AND FARMINGTON.

MOZ001>031-035>038-043-044-053-054-240400-
...NORTHERN AND WESTERN MISSOURI...
  
CITY           SKY/WX    TMP DP  RH WIND       PRES   REMARKS
KANSAS CTY INT CLOUDY    71  62  73 E13       29.99R                  
KANSAS C DTWN  CLOUDY    73  64  73 E6        29.97R                  
LEE'S SUMMIT   MOCLDY    71  66  84 E8        29.99R                  
ST JOSEPH      CLOUDY    71  57  61 E10       29.96S                  
CHILLICOTHE      N/A     71  61  70 CALM      30.01S                  
KIRKSVILLE     CLOUDY    70  60  70 E6        30.06R                  
     
$$
MOZ066>068-077>081-088>096-101>105-240400-
...SOUTHWEST MISSOURI...
  
CITY           SKY/WX    TMP DP  RH WIND       PRES   REMARKS
SPRINGFIELD    CLEAR     76  66  71 S9        30.02R                  
JOPLIN         CLEAR     76  67  73 SE5       30.01R                  
BRANSON        CLEAR     73  66  78 SE7       30.06S                  
               
$$
MOZ032>034-039>042-045>050-055>058-069>072-240400-
...CENTRAL MISSOURI...  
  
CITY           SKY/WX    TMP DP  RH WIND       PRES   REMARKS
COLUMBIA       PTCLDY    73  67  81 E9        30.03S                  
ROLLA          PTCLDY    73  68  84 E9        30.06R                  
SEDALIA        CLEAR     70  69  97 E8        30.02R                  
WHITEMAN AFB   CLOUDY    72  72 100 SE5       29.96R                  
WARRENSBURG    CLOUDY    72  66  83 E7        29.99R                  
OSAGE BEACH    PTCLDY    73  71  93 E6        30.03S                  
               
$$
MOZ051-052-059>065-240400-
...EAST CENTRAL MISSOURI...
  
CITY           SKY/WX    TMP DP  RH WIND       PRES   REMARKS
ST LOUIS INTL  MOCLDY    75  66  73 E5        30.07R                  
SPIRIT OF STL  CLOUDY    74  70  87 CALM      30.05R                  
ST CHARLES     MOCLDY    72  67  84 NE3       30.05S                  
                   
$$
MOZ072>076-082>087-097>100-106>115-240400-
...SOUTH CENTRAL AND SOUTHEAST MISSOURI...
  
CITY           SKY/WX    TMP DP  RH WIND       PRES   REMARKS
CAPE GIRARDEAU FAIR      78  68  71 S6        30.07R                  
FARMINGTON     PTCLDY    73  68  84 CALM      30.09R                  
POPLAR BLUFF   FAIR      74  73  97 CALM      30.06R                  
WEST PLAINS    CLEAR     75  66  73 S5        30.08R                  
                                       
$$